Location: ????
(33.1659°N, 35.6604°E)
Time: 05:20:26
(UTC+00:00)

Cosmos 1455 Rocket - Pass Details

Date: 20 September 2019
Orbit: 605 x 630 km, 82.5° (Epoch: 18 October)

Event Time Altitude Azimuth Distance (km) Brightness Sun altitude
Exits shadow 17:31:55 36° 197° (SSW) 992 4.0 -24.4°
Maximum altitude 17:33:40 76° 276° (W) 647 3.1 -24.7°
Drops below altitude 10° 17:38:08 10° 3° (N) 2,007 5.8 -25.6°
Sets 17:40:23 0° 5° (N) 2,920 6.7 -26.0°
